Location: Arpaise
(41.0333°N, 14.7333°E)
Time: 17:14:26
(UTC+00:00)

NOSS 3-4 (A) - Pass Details

Date: 05 July 2020
Orbit: 892 x 1320 km, 63.4° (Epoch: 12 July)

Event Time Altitude Azimuth Distance (km) Brightness Sun altitude
Rises 22:07:35 0° 325° (NW) 3,853 7.8 -24.9°
Reaches altitude 10° 22:10:07 10° 326° (NW) 2,954 6.9 -25.0°
Maximum altitude 22:17:14 87° 54° (NE) 1,189 3.8 -25.3°
Enters shadow 22:19:47 47° 143° (SE) 1,557 4.1 -25.4°
